Location: Newark
(7.0858°N, 171.3717°E)
Time: 09:11:09
(UTC+00:00)

S-56A Canister/Altair - Pass Details

Date: 05 December 2020
Orbit: 633 x 2499 km, 38.9° (Epoch: 27 January)

Event Time Altitude Azimuth Distance (km) Brightness Sun altitude
Rises 03:55:40 0° 240° (WSW) 5,933 13.2 30.7°
Reaches altitude 10° 03:59:28 10° 243° (WSW) 5,045 13.3 29.9°
Maximum altitude 04:14:14 61° 320° (NW) 2,705 10.8 26.7°
Drops below altitude 10° 04:27:38 10° 38° (NE) 4,602 11.0 23.8°
Sets 04:30:57 0° 42° (NE) 5,400 11.3 23.1°
